Weather History for K2I0 - May, 2014

Change the Weather History Date:

Thursday, May 15, 2014

  Actual Average (KHOP) Record (KHOP)
Temperature  
Mean Temperature 56 °F -  
Max Temperature 63 °F 76 °F 87 °F (1998)
Min Temperature 49 °F 56 °F 44 °F (1997)
Degree Days  
Heating Degree Days 9    
Growing Degree Days 6 (Base 50)    
Moisture  
Dew Point 48 °F    
Average Humidity 80    
Maximum Humidity 97    
Minimum Humidity 52    
Precipitation  
Precipitation 0.01 in - - ()
Sea Level Pressure  
Sea Level Pressure 30.04 in    
Wind  
Wind Speed 8 mph (NW)    
Max Wind Speed 15 mph    
Max Gust Speed 26 mph    
Visibility 10 miles    
Events Rain    
Averages and records for this station are not official NWS values.
T = Trace of Precipitation, MM = Missing Value Source: NWS Daily Summary

Daily Weather History Graph

Daily Weather History Graph

Search for Another Location

Airport or City:

Trip Planner

Search our weather history database for the weather conditions in past years. The results will help you decide how hot, cold, wet, or windy it might be!

Date:

Astronomy

May. 15, 2014 Rise Set
Actual Time 5:40 AM CDT 7:51 PM CDT
Civil Twilight 5:11 AM CDT 8:20 PM CDT
Nautical Twilight 4:35 AM CDT 8:56 PM CDT
Astronomical Twilight 3:57 AM CDT 9:35 PM CDT
Moon 8:59 PM CDT (5/15) 6:26 AM CDT (5/15)
Length of Visible Light 15h 09m
Length of Day
14h 10m
Full, 99% of the Moon is Illuminated
May 15
Full
May 21
Last Quarter
May 28
New
Jun 5
First Quarter
Jun 12
Full

Hourly Weather History & Observations

Time (CDT) Temp. Dew Point Humidity Pressure Visibility Wind Dir Wind Speed Gust Speed Precip Events Conditions
12:15 AM 53.1 °F 52.0 °F 96% 29.93 in 10.0 mi NW 10.4 mph - N/A   Overcast
12:35 AM 51.8 °F 50.5 °F 95% 29.94 in 10.0 mi NW 13.8 mph 19.6 mph N/A   Overcast
12:55 AM 51.8 °F 50.5 °F 95% 29.94 in 10.0 mi NW 9.2 mph - N/A   Overcast
1:15 AM 51.4 °F 49.5 °F 93% 29.94 in 10.0 mi NW 9.2 mph - N/A   Overcast
1:35 AM 51.3 °F 49.8 °F 95% 29.94 in 10.0 mi NW 5.8 mph - N/A   Overcast
1:55 AM 51.4 °F 49.8 °F 94% 29.94 in 10.0 mi NW 10.4 mph - N/A   Overcast
2:15 AM 51.3 °F 49.3 °F 93% 29.94 in 10.0 mi WNW 15.0 mph 21.9 mph N/A   Overcast
2:35 AM 50.9 °F 49.3 °F 94% 29.94 in 10.0 mi NW 13.8 mph - N/A   Overcast
2:55 AM 50.9 °F 49.1 °F 94% 29.95 in 10.0 mi WNW 8.1 mph - N/A   Overcast
3:15 AM 50.7 °F 48.9 °F 94% 29.95 in 10.0 mi WNW 10.4 mph - N/A   Overcast
3:35 AM 50.5 °F 48.9 °F 94% 29.96 in 10.0 mi WNW 8.1 mph - N/A   Overcast
3:55 AM 50.4 °F 49.1 °F 95% 29.96 in 10.0 mi WNW 9.2 mph - N/A   Overcast
4:15 AM 50.0 °F 49.1 °F 97% 29.96 in 10.0 mi NW 9.2 mph - N/A   Overcast
4:35 AM 50.2 °F 49.1 °F 96% 29.97 in 10.0 mi NW 5.8 mph - N/A   Overcast
4:55 AM 50.2 °F 49.1 °F 96% 29.97 in 10.0 mi WNW 10.4 mph - N/A   Overcast
5:15 AM 50.2 °F 49.1 °F 96% 29.98 in 10.0 mi NW 6.9 mph - N/A   Overcast
5:35 AM 50.2 °F 49.1 °F 96% 29.98 in 10.0 mi NW 5.8 mph - N/A   Overcast
5:55 AM 50.0 °F 49.1 °F 97% 29.99 in 5.0 mi NW 9.2 mph - N/A   Overcast
6:15 AM 50.0 °F 49.1 °F 97% 30.01 in 5.0 mi NW 5.8 mph - N/A   Overcast
6:35 AM 50.0 °F 49.1 °F 97% 30.01 in 10.0 mi NW 5.8 mph - N/A   Overcast
6:55 AM 50.2 °F 49.1 °F 96% 30.02 in 10.0 mi North 5.8 mph - N/A Rain Light Rain
7:15 AM 50.4 °F 49.3 °F 96% 30.03 in 10.0 mi WNW 5.8 mph - N/A   Overcast
7:35 AM 50.2 °F 48.9 °F 95% 30.04 in 3.0 mi WNW 8.1 mph - N/A Rain Rain
7:55 AM 50.4 °F 49.3 °F 96% 30.04 in 7.0 mi WNW 9.2 mph - N/A   Overcast
8:15 AM 50.2 °F 48.7 °F 95% 30.05 in 5.0 mi NNW 8.1 mph - N/A Rain Rain
8:35 AM 49.1 °F 47.5 °F 94% 30.06 in 5.0 mi NW 11.5 mph 21.9 mph 0.01 in   Drizzle
8:55 AM 50.0 °F 48.2 °F 94% 30.06 in 10.0 mi NW 10.4 mph - 0.01 in Rain Light Rain
9:15 AM 50.5 °F 48.4 °F 92% 30.07 in 10.0 mi NW 10.4 mph - N/A   Overcast
9:35 AM 51.4 °F 48.4 °F 89% 30.08 in 10.0 mi NW 11.5 mph - N/A   Overcast
9:55 AM 52.3 °F 48.7 °F 88% 30.08 in 10.0 mi WNW 12.7 mph - N/A   Overcast
10:15 AM 51.3 °F 48.0 °F 89% 30.09 in 7.0 mi WNW 10.4 mph - N/A Rain Light Rain
10:35 AM 52.9 °F 48.7 °F 86% 30.09 in 10.0 mi NW 9.2 mph 19.6 mph N/A   Overcast
10:55 AM 52.9 °F 48.6 °F 85% 30.10 in 10.0 mi NNW 6.9 mph 16.1 mph N/A   Overcast
11:15 AM 54.1 °F 48.4 °F 81% 30.10 in 10.0 mi NNW 11.5 mph 20.7 mph N/A   Overcast
11:35 AM 54.5 °F 47.5 °F 77% 30.10 in 10.0 mi NW 13.8 mph 26.5 mph N/A   Overcast
11:55 AM 55.9 °F 47.1 °F 72% 30.10 in 10.0 mi NNW 5.8 mph 16.1 mph N/A   Overcast
12:35 PM 58.3 °F 47.1 °F 66% 30.10 in 10.0 mi NNW 9.2 mph 18.4 mph N/A   Mostly Cloudy
12:55 PM 58.8 °F 46.8 °F 64% 30.10 in 10.0 mi North 8.1 mph 20.7 mph N/A   Mostly Cloudy
1:15 PM 59.2 °F 46.8 °F 63% 30.09 in 10.0 mi NW 9.2 mph - N/A   Mostly Cloudy
2:15 PM 61.3 °F 46.4 °F 58% 30.09 in 10.0 mi NW 10.4 mph 23.0 mph N/A   Overcast
2:55 PM 60.3 °F 46.0 °F 59% 30.09 in 10.0 mi NNW 6.9 mph - N/A   Overcast
3:15 PM 60.1 °F 45.7 °F 59% 30.08 in 10.0 mi NNW 6.9 mph - N/A   Overcast
3:35 PM 60.6 °F 45.5 °F 57% 30.07 in 10.0 mi WNW 4.6 mph - N/A   Overcast
3:55 PM 61.7 °F 45.0 °F 54% 30.07 in 10.0 mi Calm Calm - N/A   Mostly Cloudy
4:15 PM 62.6 °F 46.2 °F 55% 30.06 in 10.0 mi West 6.9 mph - N/A   Scattered Clouds
4:35 PM 63.3 °F 45.7 °F 53% 30.06 in 10.0 mi Calm Calm - N/A   Mostly Cloudy
4:55 PM 61.9 °F 44.1 °F 52% 30.05 in 10.0 mi Calm Calm - N/A   Mostly Cloudy
5:15 PM 63.5 °F 46.8 °F 54% 30.04 in 10.0 mi West 6.9 mph - N/A   Scattered Clouds
5:35 PM 62.2 °F 46.9 °F 57% 30.04 in 10.0 mi Calm Calm - N/A   Mostly Cloudy
5:55 PM 61.7 °F 46.8 °F 58% 30.04 in 10.0 mi South 5.8 mph - N/A   Mostly Cloudy
6:15 PM 62.2 °F 46.0 °F 55% 30.04 in 10.0 mi South 4.6 mph - N/A   Scattered Clouds
6:35 PM 60.4 °F 46.4 °F 60% 30.04 in 10.0 mi SSW 4.6 mph - N/A   Mostly Cloudy
6:55 PM 60.1 °F 47.7 °F 64% 30.05 in 10.0 mi South 3.5 mph - N/A   Overcast
7:15 PM 59.9 °F 48.6 °F 66% 30.05 in 10.0 mi SSE 4.6 mph - N/A   Overcast
7:35 PM 59.4 °F 47.7 °F 65% 30.05 in 10.0 mi SSE 3.5 mph - N/A   Overcast
7:55 PM 59.0 °F 47.3 °F 65% 30.06 in 10.0 mi South 4.6 mph - N/A   Overcast
8:15 PM 58.1 °F 47.7 °F 68% 30.06 in 10.0 mi South 4.6 mph - N/A   Overcast
8:35 PM 56.8 °F 48.2 °F 73% 30.06 in 10.0 mi South 4.6 mph - N/A   Scattered Clouds
8:55 PM 56.3 °F 48.2 °F 74% 30.06 in 10.0 mi South 5.8 mph - N/A   Clear
9:15 PM 56.5 °F 48.0 °F 73% 30.06 in 10.0 mi South 5.8 mph - N/A   Mostly Cloudy
9:35 PM 56.3 °F 49.3 °F 77% 30.08 in 10.0 mi NW 11.5 mph 23.0 mph N/A   Overcast
9:55 PM 54.9 °F 48.4 °F 79% 30.08 in 10.0 mi NW 8.1 mph - N/A   Overcast
10:15 PM 54.1 °F 48.6 °F 81% 30.07 in 10.0 mi NNE 3.5 mph - N/A   Overcast
10:35 PM 54.0 °F 48.6 °F 82% 30.08 in 10.0 mi WNW 4.6 mph - N/A   Overcast
10:55 PM 53.8 °F 49.3 °F 85% 30.08 in 10.0 mi WNW 5.8 mph - N/A   Overcast
11:15 PM 53.2 °F 48.9 °F 85% 30.07 in 10.0 mi NNW 4.6 mph - N/A   Overcast
11:35 PM 53.2 °F 48.6 °F 84% 30.07 in 10.0 mi NW 3.5 mph - N/A   Overcast
11:55 PM 53.1 °F 48.7 °F 85% 30.07 in 10.0 mi WNW 4.6 mph - N/A   Overcast